Terug naar catalogus

STARLINK-2734

ActiefCommunicatieVLEO
NORAD 48657·PAYLOAD·🇺🇸 United States

Gelanceerd May 26, 2021 vanaf Cape Canaveral Space Force Station

Loading…

Volgende Passages (komende 24 uur)

TLE

VersSource: CelesTrak SupGP

Epoch: Sep 15, 2026, 01:58 UTC

1 48657C 21044V   26258.08243056  .00045473  00000+0  14619-2 0  2585
2 48657  53.1597 312.5675 0001350  87.2803 322.7471 15.31687306    15

Volg STARLINK-2734 in realtime met AllMySat

Download on the App Store